Time,TemperatureF,DewpointF,PressureIn,WindDirection,WindDirectionDegrees,WindSpeedMPH,WindSpeedGustMPH,Humidity,HourlyPrecipIn,Conditions,Clouds,dailyrainin,SoftwareType,DateUTC
2013-09-17 00:00:00,58.7,55.5,30.18,ENE,61,0.0,0.0,89,0.00,,,0.00,Wunderground v.1.12,2013-09-17 04:00:00,
2013-09-17 00:10:00,58.7,55.5,30.18,ENE,61,0.0,0.0,89,0.00,,,0.00,Wunderground v.1.12,2013-09-17 04:10:00,
2013-09-17 00:20:00,58.7,55.8,30.19,ENE,61,0.0,0.0,90,0.00,,,0.00,Wunderground v.1.12,2013-09-17 04:20:00,
2013-09-17 00:30:00,58.6,55.7,30.19,ENE,61,0.0,0.0,90,0.00,,,0.00,Wunderground v.1.12,2013-09-17 04:30:00,
2013-09-17 00:40:00,58.7,55.8,30.19,ENE,61,0.0,0.0,90,0.00,,,0.00,Wunderground v.1.12,2013-09-17 04:40:00,
2013-09-17 00:50:00,59.0,55.8,30.20,NE,46,0.0,0.0,89,0.00,,,0.00,Wunderground v.1.12,2013-09-17 04:50:00,
2013-09-17 01:00:00,58.9,55.7,30.20,NE,46,0.0,0.0,89,0.00,,,0.00,Wunderground v.1.12,2013-09-17 05:00:00,
2013-09-17 01:10:00,59.3,55.4,30.20,East,84,0.0,0.0,87,0.00,,,0.00,Wunderground v.1.12,2013-09-17 05:10:00,
2013-09-17 01:20:00,60.1,54.6,30.20,ESE,115,0.0,0.0,82,0.00,,,0.00,Wunderground v.1.12,2013-09-17 05:20:00,
2013-09-17 01:30:00,60.5,54.3,30.20,ESE,123,0.0,0.0,80,0.00,,,0.00,Wunderground v.1.12,2013-09-17 05:30:00,
2013-09-17 01:40:00,61.2,53.9,30.20,East,85,0.0,0.0,77,0.00,,,0.00,Wunderground v.1.12,2013-09-17 05:40:00,
2013-09-17 01:50:00,61.5,53.5,30.21,ENE,73,0.0,0.0,75,0.00,,,0.00,Wunderground v.1.12,2013-09-17 05:50:00,
2013-09-17 02:00:00,61.3,52.9,30.21,ENE,63,0.0,0.0,74,0.00,,,0.00,Wunderground v.1.12,2013-09-17 06:00:00,
2013-09-17 02:10:00,61.3,52.6,30.21,NE,44,0.0,0.0,73,0.00,,,0.00,Wunderground v.1.12,2013-09-17 06:10:00,
2013-09-17 02:20:00,61.3,52.6,30.22,East,84,0.0,0.0,73,0.00,,,0.00,Wunderground v.1.12,2013-09-17 06:20:00,
2013-09-17 02:30:00,61.2,52.1,30.22,NE,55,0.0,0.0,72,0.00,,,0.00,Wunderground v.1.12,2013-09-17 06:30:00,
2013-09-17 02:40:00,61.2,52.1,30.22,East,90,0.0,0.0,72,0.00,,,0.00,Wunderground v.1.12,2013-09-17 06:40:00,
2013-09-17 02:50:00,61.0,51.9,30.22,NE,39,0.0,0.0,72,0.00,,,0.00,Wunderground v.1.12,2013-09-17 06:50:00,
2013-09-17 03:00:00,60.9,51.8,30.22,East,85,0.0,0.0,72,0.00,,,0.00,Wunderground v.1.12,2013-09-17 07:00:00,
2013-09-17 03:10:00,60.5,51.8,30.23,SSE,148,0.0,0.0,73,0.00,,,0.00,Wunderground v.1.12,2013-09-17 07:10:00,
2013-09-17 03:20:00,60.4,52.1,30.23,ENE,74,0.0,0.0,74,0.00,,,0.00,Wunderground v.1.12,2013-09-17 07:20:00,
2013-09-17 03:30:00,60.2,52.2,30.23,SW,223,0.0,0.0,75,0.00,,,0.00,Wunderground v.1.12,2013-09-17 07:30:00,
2013-09-17 03:40:00,59.9,51.6,30.23,SE,140,0.0,0.0,74,0.00,,,0.00,Wunderground v.1.12,2013-09-17 07:40:00,
2013-09-17 03:50:00,59.5,51.2,30.25,SE,135,0.0,0.0,74,0.00,,,0.00,Wunderground v.1.12,2013-09-17 07:50:00,
2013-09-17 04:00:00,59.0,50.4,30.25,NNE,14,0.0,0.0,73,0.00,,,0.00,Wunderground v.1.12,2013-09-17 08:00:00,
2013-09-17 04:10:00,58.7,49.7,30.25,SE,145,0.0,0.0,72,0.00,,,0.00,Wunderground v.1.12,2013-09-17 08:10:00,
2013-09-17 04:20:00,58.4,49.4,30.25,East,96,0.0,0.0,72,0.00,,,0.00,Wunderground v.1.12,2013-09-17 08:20:00,
2013-09-17 04:30:00,58.1,49.1,30.25,ENE,74,0.0,0.0,72,0.00,,,0.00,Wunderground v.1.12,2013-09-17 08:30:00,
2013-09-17 04:40:00,57.6,48.6,30.26,East,100,0.0,0.0,72,0.00,,,0.00,Wunderground v.1.12,2013-09-17 08:40:00,
2013-09-17 04:50:00,57.3,48.0,30.26,NE,56,0.0,0.0,71,0.00,,,0.00,Wunderground v.1.12,2013-09-17 08:50:00,
2013-09-17 05:00:00,57.0,47.7,30.26,ENE,65,0.0,0.0,71,0.00,,,0.00,Wunderground v.1.12,2013-09-17 09:00:00,
2013-09-17 05:10:00,56.7,47.0,30.26,ESE,107,0.0,0.0,70,0.00,,,0.00,Wunderground v.1.12,2013-09-17 09:10:00,
2013-09-17 05:20:00,56.5,47.2,30.27,ENE,69,0.0,0.0,71,0.00,,,0.00,Wunderground v.1.12,2013-09-17 09:20:00,
2013-09-17 05:30:00,56.0,46.7,30.27,ENE,65,0.0,0.0,71,0.00,,,0.00,Wunderground v.1.12,2013-09-17 09:30:00,
2013-09-17 05:40:00,55.7,46.4,30.28,WSW,244,0.0,0.0,71,0.00,,,0.00,Wunderground v.1.12,2013-09-17 09:40:00,
2013-09-17 05:50:00,55.3,46.1,30.28,East,94,0.0,0.0,71,0.00,,,0.00,Wunderground v.1.12,2013-09-17 09:50:00,
2013-09-17 06:00:00,55.0,46.1,30.28,ENE,65,0.0,0.0,72,0.00,,,0.00,Wunderground v.1.12,2013-09-17 10:00:00,
2013-09-17 06:10:00,54.7,45.8,30.29,ESE,107,0.0,0.0,72,0.00,,,0.00,Wunderground v.1.12,2013-09-17 10:10:00,
2013-09-17 06:20:00,54.4,45.6,30.30,NNW,344,0.0,0.0,72,0.00,,,0.00,Wunderground v.1.12,2013-09-17 10:20:00,
2013-09-17 06:30:00,54.1,45.6,30.30,SE,124,0.0,0.0,73,0.00,,,0.00,Wunderground v.1.12,2013-09-17 10:30:00,
2013-09-17 06:40:00,53.6,45.5,30.31,NE,55,0.0,0.0,74,0.00,,,0.00,Wunderground v.1.12,2013-09-17 10:40:00,
2013-09-17 06:50:00,53.3,45.2,30.31,NE,55,0.0,0.0,74,0.00,,,0.00,Wunderground v.1.12,2013-09-17 10:50:00,
2013-09-17 07:00:00,53.1,45.4,30.31,East,81,0.0,0.0,75,0.00,,,0.00,Wunderground v.1.12,2013-09-17 11:00:00,
2013-09-17 07:10:00,53.2,45.5,30.31,East,80,0.0,0.0,75,0.00,,,0.00,Wunderground v.1.12,2013-09-17 11:10:00,
2013-09-17 07:20:00,53.3,45.6,30.32,East,86,0.0,0.0,75,0.00,,,0.00,Wunderground v.1.12,2013-09-17 11:20:00,
2013-09-17 07:30:00,53.3,45.6,30.32,East,86,0.0,0.0,75,0.00,,,0.00,Wunderground v.1.12,2013-09-17 11:30:00,
2013-09-17 07:40:00,53.3,45.9,30.33,East,86,0.0,0.0,76,0.00,,,0.00,Wunderground v.1.12,2013-09-17 11:40:00,
2013-09-17 07:50:00,53.5,46.1,30.34,East,86,0.0,0.0,76,0.00,,,0.00,Wunderground v.1.12,2013-09-17 11:50:00,
2013-09-17 08:00:00,53.6,46.2,30.34,ENE,69,0.0,0.0,76,0.00,,,0.00,Wunderground v.1.12,2013-09-17 12:00:00,
2013-09-17 08:10:00,53.9,46.2,30.34,SE,146,0.0,0.0,75,0.00,,,0.00,Wunderground v.1.12,2013-09-17 12:10:00,
2013-09-17 08:20:00,54.1,46.3,30.34,ENE,73,0.0,0.0,75,0.00,,,0.00,Wunderground v.1.12,2013-09-17 12:20:00,
2013-09-17 08:30:00,54.4,46.6,30.34,SE,134,0.0,0.0,75,0.00,,,0.00,Wunderground v.1.12,2013-09-17 12:30:00,
2013-09-17 08:40:00,54.7,47.3,30.35,SE,134,0.0,0.0,76,0.00,,,0.00,Wunderground v.1.12,2013-09-17 12:40:00,
2013-09-17 08:50:00,55.4,47.6,30.35,SE,135,0.0,0.0,75,0.00,,,0.00,Wunderground v.1.12,2013-09-17 12:50:00,
2013-09-17 09:00:00,55.9,47.7,30.35,ENE,59,0.0,0.0,74,0.00,,,0.00,Wunderground v.1.12,2013-09-17 13:00:00,
2013-09-17 09:10:00,56.2,48.0,30.36,NE,39,0.0,0.0,74,0.00,,,0.00,Wunderground v.1.12,2013-09-17 13:10:00,
2013-09-17 09:20:00,57.0,48.1,30.37,ENE,67,0.0,0.0,72,0.00,,,0.00,Wunderground v.1.12,2013-09-17 13:20:00,
2013-09-17 09:30:00,59.0,48.1,30.37,SE,140,0.0,0.0,67,0.00,,,0.00,Wunderground v.1.12,2013-09-17 13:30:00,
2013-09-17 09:40:00,60.4,47.7,30.36,East,96,0.0,0.0,63,0.00,,,0.00,Wunderground v.1.12,2013-09-17 13:40:00,
2013-09-17 09:50:00,61.8,47.3,30.36,ENE,64,0.0,0.0,59,0.00,,,0.00,Wunderground v.1.12,2013-09-17 13:50:00,
2013-09-17 10:00:00,63.4,46.9,30.36,ENE,77,0.0,0.0,55,0.00,,,0.00,Wunderground v.1.12,2013-09-17 14:00:00,
2013-09-17 10:10:00,65.0,45.4,30.37,East,96,0.0,0.0,49,0.00,,,0.00,Wunderground v.1.12,2013-09-17 14:10:00,
2013-09-17 10:20:00,65.8,45.6,30.37,NE,35,0.0,0.0,48,0.00,,,0.00,Wunderground v.1.12,2013-09-17 14:20:00,
2013-09-17 10:30:00,66.0,46.3,30.37,NE,49,0.0,0.0,49,0.00,,,0.00,Wunderground v.1.12,2013-09-17 14:30:00,
2013-09-17 10:40:00,66.3,46.0,30.37,ENE,69,0.0,0.0,48,0.00,,,0.00,Wunderground v.1.12,2013-09-17 14:40:00,
2013-09-17 10:50:00,65.8,45.6,30.37,SE,132,0.0,0.0,48,0.00,,,0.00,Wunderground v.1.12,2013-09-17 14:50:00,
2013-09-17 11:00:00,65.8,45.6,30.37,SSE,153,0.0,0.0,48,0.00,,,0.00,Wunderground v.1.12,2013-09-17 15:00:00,
2013-09-17 11:09:00,66.6,46.3,30.38,NE,49,0.0,0.0,48,0.00,,,0.00,Wunderground v.1.12,2013-09-17 15:09:00,
2013-09-17 11:20:00,67.4,47.0,30.38,ESE,111,0.0,0.0,48,0.00,,,0.00,Wunderground v.1.12,2013-09-17 15:20:00,
2013-09-17 11:30:00,67.1,45.6,30.38,ENE,63,0.0,0.0,46,0.00,,,0.00,Wunderground v.1.12,2013-09-17 15:30:00,
2013-09-17 11:40:00,67.6,46.1,30.38,NE,53,0.0,0.0,46,0.00,,,0.00,Wunderground v.1.12,2013-09-17 15:40:00,
2013-09-17 11:50:00,68.1,45.4,30.38,SE,125,0.0,0.0,44,0.00,,,0.00,Wunderground v.1.12,2013-09-17 15:50:00,
2013-09-17 12:00:00,67.8,43.9,30.38,SE,128,0.0,0.0,42,0.00,,,0.00,Wunderground v.1.12,2013-09-17 16:00:00,
2013-09-17 12:09:00,68.3,44.3,30.38,NE,49,0.0,0.0,42,0.00,,,0.00,Wunderground v.1.12,2013-09-17 16:09:00,
2013-09-17 12:19:00,69.1,46.3,30.37,ENE,59,0.0,0.0,44,0.00,,,0.00,Wunderground v.1.12,2013-09-17 16:19:00,
2013-09-17 12:30:00,69.6,45.5,30.37,ENE,62,0.0,0.0,42,0.00,,,0.00,Wunderground v.1.12,2013-09-17 16:30:00,
2013-09-17 12:40:00,69.9,46.4,30.37,East,83,0.0,0.0,43,0.00,,,0.00,Wunderground v.1.12,2013-09-17 16:40:00,
2013-09-17 12:49:00,69.1,44.4,30.37,ENE,64,0.0,0.0,41,0.00,,,0.00,Wunderground v.1.12,2013-09-17 16:49:00,
2013-09-17 13:00:00,68.8,47.2,30.37,NE,53,0.0,0.0,46,0.00,,,0.00,Wunderground v.1.12,2013-09-17 17:00:00,
2013-09-17 13:09:00,68.8,42.1,30.37,East,95,0.0,0.0,38,0.00,,,0.00,Wunderground v.1.12,2013-09-17 17:09:00,
2013-09-17 13:20:00,67.8,43.2,30.36,NE,55,0.0,0.0,41,0.00,,,0.00,Wunderground v.1.12,2013-09-17 17:20:00,
2013-09-17 13:30:00,66.6,43.4,30.36,ENE,75,0.0,0.0,43,0.00,,,0.00,Wunderground v.1.12,2013-09-17 17:30:00,
2013-09-17 13:40:00,65.8,43.9,30.36,East,89,0.0,0.0,45,0.00,,,0.00,Wunderground v.1.12,2013-09-17 17:40:00,
2013-09-17 13:50:00,65.2,42.7,30.35,NNW,329,0.0,0.0,44,0.00,,,0.00,Wunderground v.1.12,2013-09-17 17:50:00,
2013-09-17 14:00:00,65.0,43.1,30.35,ENE,62,0.0,0.0,45,0.00,,,0.00,Wunderground v.1.12,2013-09-17 18:00:00,
2013-09-17 14:10:00,64.8,42.4,30.35,East,82,0.0,0.0,44,0.00,,,0.00,Wunderground v.1.12,2013-09-17 18:10:00,
2013-09-17 14:20:00,64.8,43.5,30.34,NE,55,0.0,0.0,46,0.00,,,0.00,Wunderground v.1.12,2013-09-17 18:20:00,
2013-09-17 14:29:00,65.0,43.1,30.34,East,98,0.0,0.0,45,0.00,,,0.00,Wunderground v.1.12,2013-09-17 18:29:00,
2013-09-17 14:40:00,64.3,42.5,30.33,SSE,162,0.0,0.0,45,0.00,,,0.00,Wunderground v.1.12,2013-09-17 18:40:00,
2013-09-17 14:50:00,64.2,40.6,30.33,ENE,64,0.0,0.0,42,0.00,,,0.00,Wunderground v.1.12,2013-09-17 18:50:00,
2013-09-17 14:59:00,64.3,41.9,30.33,ESE,107,0.0,0.0,44,0.00,,,0.00,Wunderground v.1.12,2013-09-17 18:59:00,
2013-09-17 15:10:00,65.2,40.9,30.32,NE,38,0.0,0.0,41,0.00,,,0.00,Wunderground v.1.12,2013-09-17 19:10:00,
2013-09-17 15:19:00,65.6,40.6,30.32,SE,136,0.0,0.0,40,0.00,,,0.00,Wunderground v.1.12,2013-09-17 19:19:00,
2013-09-17 15:30:00,66.3,38.5,30.32,ENE,74,0.0,0.0,36,0.00,,,0.00,Wunderground v.1.12,2013-09-17 19:30:00,
2013-09-17 15:39:00,66.6,40.2,30.31,ENE,61,0.0,0.0,38,0.00,,,0.00,Wunderground v.1.12,2013-09-17 19:39:00,
2013-09-17 15:49:00,67.3,43.4,30.31,NE,53,0.0,0.0,42,0.00,,,0.00,Wunderground v.1.12,2013-09-17 19:49:00,
2013-09-17 16:00:00,67.4,41.6,30.31,ESE,121,0.0,0.0,39,0.00,,,0.00,Wunderground v.1.12,2013-09-17 20:00:00,
2013-09-17 16:09:00,67.4,42.9,30.30,ENE,78,0.0,0.0,41,0.00,,,0.00,Wunderground v.1.12,2013-09-17 20:09:00,
2013-09-17 16:19:00,67.3,41.5,30.30,East,79,0.0,0.0,39,0.00,,,0.00,Wunderground v.1.12,2013-09-17 20:19:00,
2013-09-17 16:29:00,67.6,41.1,30.30,SSE,157,0.0,0.0,38,0.00,,,0.00,Wunderground v.1.12,2013-09-17 20:29:00,
2013-09-17 16:40:00,67.9,41.3,30.30,NE,42,0.0,0.0,38,0.00,,,0.00,Wunderground v.1.12,2013-09-17 20:40:00,
2013-09-17 16:50:00,67.9,40.7,30.29,NE,56,0.0,0.0,37,0.00,,,0.00,Wunderground v.1.12,2013-09-17 20:50:00,
2013-09-17 17:00:00,68.3,41.0,30.29,East,80,0.0,0.0,37,0.00,,,0.00,Wunderground v.1.12,2013-09-17 21:00:00,
2013-09-17 17:10:00,69.4,42.0,30.29,East,80,0.0,0.0,37,0.00,,,0.00,Wunderground v.1.12,2013-09-17 21:10:00,
2013-09-17 17:20:00,69.9,41.7,30.29,East,80,0.0,0.0,36,0.00,,,0.00,Wunderground v.1.12,2013-09-17 21:20:00,
2013-09-17 17:30:00,69.4,42.7,30.29,ENE,68,0.0,0.0,38,0.00,,,0.00,Wunderground v.1.12,2013-09-17 21:30:00,
2013-09-17 17:39:00,68.8,41.5,30.29,East,91,0.0,0.0,37,0.00,,,0.00,Wunderground v.1.12,2013-09-17 21:39:00,
2013-09-17 17:50:00,67.8,41.9,30.29,East,92,0.0,0.0,39,0.00,,,0.00,Wunderground v.1.12,2013-09-17 21:50:00,
2013-09-17 17:59:00,66.4,42.6,30.29,East,91,0.0,0.0,42,0.00,,,0.00,Wunderground v.1.12,2013-09-17 21:59:00,
2013-09-17 18:10:00,65.5,43.6,30.29,East,91,0.0,0.0,45,0.00,,,0.00,Wunderground v.1.12,2013-09-17 22:10:00,
2013-09-17 18:19:00,64.8,42.9,30.29,East,91,0.0,0.0,45,0.00,,,0.00,Wunderground v.1.12,2013-09-17 22:19:00,
2013-09-17 18:30:00,64.2,44.1,30.29,East,91,0.0,0.0,48,0.00,,,0.00,Wunderground v.1.12,2013-09-17 22:30:00,
2013-09-17 18:40:00,63.5,45.6,30.29,East,91,0.0,0.0,52,0.00,,,0.00,Wunderground v.1.12,2013-09-17 22:40:00,
2013-09-17 18:49:00,62.4,45.5,30.29,East,92,0.0,0.0,54,0.00,,,0.00,Wunderground v.1.12,2013-09-17 22:49:00,
2013-09-17 19:00:00,61.0,46.6,30.29,East,92,0.0,0.0,59,0.00,,,0.00,Wunderground v.1.12,2013-09-17 23:00:00,
2013-09-17 19:10:00,59.8,46.7,30.29,East,92,0.0,0.0,62,0.00,,,0.00,Wunderground v.1.12,2013-09-17 23:10:00,
2013-09-17 19:19:00,58.7,47.0,30.28,East,91,0.0,0.0,65,0.00,,,0.00,Wunderground v.1.12,2013-09-17 23:19:00,
2013-09-17 19:30:00,57.6,47.1,30.28,East,92,0.0,0.0,68,0.00,,,0.00,Wunderground v.1.12,2013-09-17 23:30:00,
2013-09-17 19:40:00,56.9,46.8,30.29,East,92,0.0,0.0,69,0.00,,,0.00,Wunderground v.1.12,2013-09-17 23:40:00,
2013-09-17 19:49:00,56.3,47.0,30.29,East,91,0.0,0.0,71,0.00,,,0.00,Wunderground v.1.12,2013-09-17 23:49:00,
2013-09-17 20:00:00,55.7,47.2,30.29,East,92,0.0,0.0,73,0.00,,,0.00,Wunderground v.1.12,2013-09-18 00:00:00,
2013-09-17 20:10:00,55.3,47.2,30.29,East,92,0.0,0.0,74,0.00,,,0.00,Wunderground v.1.12,2013-09-18 00:10:00,
2013-09-17 20:19:00,55.0,46.9,30.29,East,91,0.0,0.0,74,0.00,,,0.00,Wunderground v.1.12,2013-09-18 00:19:00,
2013-09-17 20:30:00,54.5,46.7,30.29,East,92,0.0,0.0,75,0.00,,,0.00,Wunderground v.1.12,2013-09-18 00:30:00,
2013-09-17 20:40:00,54.2,46.8,30.29,East,92,0.0,0.0,76,0.00,,,0.00,Wunderground v.1.12,2013-09-18 00:40:00,
2013-09-17 20:50:00,54.1,47.4,30.29,East,92,0.0,0.0,78,0.00,,,0.00,Wunderground v.1.12,2013-09-18 00:50:00,
2013-09-17 21:00:00,53.8,47.4,30.29,East,91,0.0,0.0,79,0.00,,,0.00,Wunderground v.1.12,2013-09-18 01:00:00,
2013-09-17 21:10:00,53.6,47.9,30.30,East,92,0.0,0.0,81,0.00,,,0.00,Wunderground v.1.12,2013-09-18 01:10:00,
2013-09-17 21:20:00,53.5,47.8,30.30,East,92,0.0,0.0,81,0.00,,,0.00,Wunderground v.1.12,2013-09-18 01:20:00,
2013-09-17 21:29:00,53.3,47.9,30.30,East,92,0.0,0.0,82,0.00,,,0.00,Wunderground v.1.12,2013-09-18 01:29:00,
2013-09-17 21:39:00,53.2,48.2,30.30,East,91,0.0,0.0,83,0.00,,,0.00,Wunderground v.1.12,2013-09-18 01:39:00,
2013-09-17 21:49:00,53.1,48.1,30.31,East,92,0.0,0.0,83,0.00,,,0.00,Wunderground v.1.12,2013-09-18 01:49:00,
2013-09-17 21:59:00,53.2,48.2,30.31,North,5,0.0,0.0,83,0.00,,,0.00,Wunderground v.1.12,2013-09-18 01:59:00,
2013-09-17 22:09:00,53.9,49.2,30.31,South,171,0.0,0.0,84,0.00,,,0.00,Wunderground v.1.12,2013-09-18 02:09:00,
2013-09-17 22:19:00,55.9,49.5,30.31,ENE,69,0.0,0.0,79,0.00,,,0.00,Wunderground v.1.12,2013-09-18 02:19:00,
2013-09-17 22:30:00,56.7,49.9,30.31,West,278,0.0,0.0,78,0.00,,,0.00,Wunderground v.1.12,2013-09-18 02:30:00,
2013-09-17 22:40:00,57.3,49.4,30.31,NE,41,0.0,0.0,75,0.00,,,0.00,Wunderground v.1.12,2013-09-18 02:40:00,
2013-09-17 22:49:00,57.3,49.4,30.31,NE,41,0.0,0.0,75,0.00,,,0.00,Wunderground v.1.12,2013-09-18 02:49:00,
2013-09-17 23:00:00,57.0,49.2,30.31,NE,41,0.0,0.0,75,0.00,,,0.00,Wunderground v.1.12,2013-09-18 03:00:00,
2013-09-17 23:10:00,56.9,49.1,30.31,North,5,0.0,0.0,75,0.00,,,0.00,Wunderground v.1.12,2013-09-18 03:10:00,
2013-09-17 23:20:00,56.9,48.7,30.31,North,5,0.0,0.0,74,0.00,,,0.00,Wunderground v.1.12,2013-09-18 03:20:00,
2013-09-17 23:29:00,56.7,48.5,30.31,North,5,0.0,0.0,74,0.00,,,0.00,Wunderground v.1.12,2013-09-18 03:29:00,
2013-09-17 23:40:00,56.5,48.3,30.31,North,5,0.0,0.0,74,0.00,,,0.00,Wunderground v.1.12,2013-09-18 03:40:00,
2013-09-17 23:50:00,56.2,48.4,30.31,North,5,0.0,0.0,75,0.00,,,0.00,Wunderground v.1.12,2013-09-18 03:50:00,